| time (UTC) | temp C | wind direction | speed KPH | gust KPH | rain 1hr cm | rain 24hr cm | rain mn cm | humidity % | barometer mb |
| 20260506011558 | 20 | 16 | 9.7 | 20.9 | 0.00 | 0.00 | 0.00 | 72 | 1004.5 |
| 20260506010057 | 21 | 355 | 12.9 | 24.1 | 0.00 | 0.00 | 0.00 | 71 | 1004.3 |
| 20260506004551 | 21 | 355 | 12.9 | 19.3 | 0.00 | 0.00 | 0.00 | 71 | 1003.9 |
| 20260506003049 | 22 | 11 | 9.7 | 20.9 | 0.00 | 0.00 | 0.00 | 70 | 1003.9 |
| 20260506001547 | 22 | 5 | 17.7 | 25.7 | 0.00 | 0.00 | 0.00 | 68 | 1003.6 |
| 20260506000047 | 23 | 324 | 16.1 | 25.7 | 0.00 | 0.00 | 0.00 | 67 | 1003.4 |
| 20260505234555 | 23 | 350 | 14.5 | 24.1 | 0.00 | 0.00 | 0.00 | 66 | 1003.3 |
| 20260505233051 | 24 | 333 | 14.5 | 25.7 | 0.00 | 0.00 | 0.00 | 65 | 1003.2 |
| 20260505231551 | 25 | 360 | 12.9 | 25.7 | 0.00 | 0.00 | 0.00 | 64 | 1003.2 |
| 20260505230043 | 26 | 27 | 12.9 | 24.1 | 0.00 | 0.00 | 0.00 | 63 | 1002.8 |
| 20260505224543 | 26 | 297 | 12.9 | 22.5 | 0.00 | 0.00 | 0.00 | 63 | 1002.9 |
| 20260505223050 | 27 | 15 | 9.7 | 29.0 | 0.00 | 0.00 | 0.00 | 62 | 1002.4 |
| 20260505221540 | 28 | 320 | 11.3 | 20.9 | 0.00 | 0.00 | 0.00 | 61 | 1002.3 |
| 20260505220042 | 28 | 16 | 14.5 | 25.7 | 0.00 | 0.00 | 0.00 | 52 | 1002.2 |
| 20260505214547 | 28 | 360 | 14.5 | 20.9 | 0.00 | 0.00 | 0.00 | 52 | 1002.1 |
| 20260505213036 | 29 | 334 | 12.9 | 27.4 | 0.00 | 0.00 | 0.00 | 50 | 1002.3 |
| 20260505211534 | 30 | 360 | 14.5 | 29.0 | 0.00 | 0.00 | 0.00 | 49 | 1002.1 |
| 20260505210034 | 31 | 223 | 6.4 | 16.1 | 0.00 | 0.00 | 0.00 | 55 | 1002.3 |
| 20260505204535 | 30 | 252 | 9.7 | 16.1 | 0.00 | 0.00 | 0.00 | 54 | 1002.4 |
| 20260505203032 | 30 | 285 | 9.7 | 19.3 | 0.00 | 0.00 | 0.00 | 54 | 1002.5 |
| 20260505201528 | 30 | 175 | 6.4 | 16.1 | 0.00 | 0.00 | 0.00 | 53 | 1002.6 |
| 20260505200037 | 30 | 319 | 6.4 | 17.7 | 0.00 | 0.00 | 0.00 | 55 | 1002.8 |
| 20260505194524 | 30 | 279 | 6.4 | 19.3 | 0.00 | 0.00 | 0.00 | 57 | 1003.0 |
| 20260505193022 | 30 | 230 | 4.8 | 19.3 | 0.00 | 0.00 | 0.00 | 59 | 1002.9 |
| 20260505191519 | 30 | 208 | 11.3 | 24.1 | 0.00 | 0.00 | 0.00 | 59 | 1002.9 |
| 20260505190017 | 29 | 232 | 11.3 | 25.7 | 0.00 | 0.00 | 0.00 | 61 | 1002.9 |
| 20260505184513 | 28 | 238 | 11.3 | 22.5 | 0.00 | 0.00 | 0.00 | 64 | 1003.0 |
| 20260505183012 | 28 | 198 | 6.4 | 25.7 | 0.00 | 0.00 | 0.00 | 66 | 1003.1 |
| 20260505181505 | 27 | 186 | 11.3 | 25.7 | 0.00 | 0.00 | 0.00 | 68 | 1003.2 |
| 20260505180006 | 27 | 248 | 11.3 | 24.1 | 0.00 | 0.00 | 0.00 | 68 | 1003.2 |
| 20260505174501 | 27 | 193 | 9.7 | 24.1 | 0.00 | 0.00 | 0.00 | 71 | 1003.3 |
| 20260505173003 | 27 | 197 | 8.0 | 25.7 | 0.00 | 0.00 | 0.00 | 70 | 1003.4 |
| 20260505171605 | 27 | 167 | 12.9 | 25.7 | 0.00 | 0.00 | 0.00 | 69 | 1003.3 |
| 20260505170057 | 27 | 194 | 9.7 | 22.5 | 0.00 | 0.00 | 0.00 | 71 | 1003.3 |
| 20260505164616 | 26 | 212 | 9.7 | 30.6 | 0.00 | 0.00 | 0.00 | 71 | 1003.3 |
| 20260505163101 | 26 | 160 | 14.5 | 35.4 | 0.00 | 0.00 | 0.00 | 73 | 1003.3 |
| 20260505161550 | 25 | 178 | 11.3 | 30.6 | 0.00 | 0.00 | 0.00 | 74 | 1003.2 |
| 20260505153041 | 24 | 200 | 11.3 | 24.1 | 0.00 | 0.00 | 0.00 | 78 | 1002.9 |
| 20260505151537 | 23 | 205 | 12.9 | 25.7 | 0.00 | 0.00 | 0.00 | 80 | 1002.9 |
| 20260505124535 | 21 | 168 | 12.9 | 27.4 | 0.00 | 0.00 | 0.00 | 86 | 1002.7 |
| 20260505123029 | 21 | 137 | 11.3 | 22.5 | 0.00 | 0.00 | 0.00 | 86 | 1002.4 |
| 20260505121528 | 21 | 177 | 12.9 | 29.0 | 0.00 | 0.00 | 0.00 | 86 | 1002.2 |
| 20260505120027 | 20 | 171 | 12.9 | 24.1 | 0.00 | 0.00 | 0.00 | 86 | 1002.2 |
| 20260505114527 | 20 | 170 | 11.3 | 22.5 | 0.00 | 0.00 | 0.00 | 87 | 1002.0 |
| 20260505113027 | 20 | 175 | 8.0 | 19.3 | 0.00 | 0.00 | 0.00 | 87 | 1002.0 |
| 20260505111534 | 20 | 165 | 8.0 | 24.1 | 0.00 | 0.00 | 0.00 | 87 | 1001.9 |
| 20260505101518 | 20 | 169 | 9.7 | 22.5 | 0.00 | 0.00 | 0.00 | 87 | 1001.9 |
| 20260505100023 | 20 | 165 | 8.0 | 22.5 | 0.00 | 0.00 | 0.00 | 87 | 1001.9 |
| 20260505094517 | 20 | 222 | 14.5 | 33.8 | 0.00 | 0.00 | 0.00 | 86 | 1001.9 |
| 20260505093014 | 20 | 165 | 14.5 | 25.7 | 0.00 | 0.00 | 0.00 | 86 | 1001.8 |
| 20260505091510 | 20 | 157 | 11.3 | 27.4 | 0.00 | 0.00 | 0.00 | 85 | 1002.0 |
| 20260505090007 | 21 | 145 | 8.0 | 24.1 | 0.00 | 0.00 | 0.00 | 84 | 1002.4 |
| 20260505084506 | 21 | 169 | 11.3 | 24.1 | 0.00 | 0.00 | 0.00 | 84 | 1002.5 |
| 20260505083012 | 21 | 146 | 14.5 | 24.1 | 0.00 | 0.00 | 0.00 | 83 | 1002.5 |
| 20260505081507 | 21 | 187 | 11.3 | 25.7 | 0.00 | 0.00 | 0.00 | 82 | 1002.5 |
| 20260505080001 | 21 | 171 | 14.5 | 30.6 | 0.00 | 0.00 | 0.00 | 81 | 1002.4 |
| 20260505074600 | 21 | 167 | 12.9 | 27.4 | 0.00 | 0.00 | 0.00 | 80 | 1002.5 |
| 20260505073057 | 21 | 141 | 14.5 | 30.6 | 0.00 | 0.00 | 0.00 | 79 | 1002.9 |
| 20260505071556 | 21 | 157 | 14.5 | 29.0 | 0.00 | 0.00 | 0.00 | 79 | 1003.2 |
| 20260505070056 | 22 | 184 | 16.1 | 38.6 | 0.00 | 0.00 | 0.00 | 78 | 1003.3 |
| 20260505064548 | 22 | 171 | 12.9 | 25.7 | 0.00 | 0.00 | 0.00 | 78 | 1003.6 |
| 20260505063047 | 22 | 212 | 12.9 | 27.4 | 0.00 | 0.00 | 0.00 | 77 | 1003.8 |
| 20260505061543 | 22 | 144 | 14.5 | 24.1 | 0.00 | 0.00 | 0.00 | 77 | 1003.8 |
| 20260505060041 | 22 | 159 | 14.5 | 30.6 | 0.00 | 0.00 | 0.00 | 76 | 1003.8 |
| 20260505054550 | 22 | 177 | 11.3 | 30.6 | 0.00 | 0.00 | 0.00 | 76 | 1003.8 |
| 20260505053051 | 23 | 167 | 14.5 | 33.8 | 0.00 | 0.00 | 0.00 | 75 | 1003.6 |
| 20260505051538 | 23 | 149 | 11.3 | 38.6 | 0.00 | 0.00 | 0.00 | 74 | 1003.6 |
| 20260505041527 | 23 | 217 | 14.5 | 35.4 | 0.00 | 0.00 | 0.00 | 73 | 1004.0 |
| 20260505040035 | 23 | 182 | 17.7 | 35.4 | 0.00 | 0.00 | 0.00 | 72 | 1004.1 |
| 20260505034526 | 23 | 158 | 12.9 | 35.4 | 0.00 | 0.00 | 0.00 | 72 | 1003.9 |
| 20260505033030 | 23 | 169 | 17.7 | 30.6 | 0.00 | 0.00 | 0.00 | 71 | 1003.8 |
| 20260505031525 | 23 | 131 | 12.9 | 29.0 | 0.00 | 0.00 | 0.00 | 71 | 1003.9 |
| 20260505030027 | 23 | 192 | 12.9 | 27.4 | 0.00 | 0.00 | 0.00 | 71 | 1003.7 |
| 20260505024523 | 23 | 155 | 11.3 | 27.4 | 0.00 | 0.00 | 0.00 | 71 | 1004.0 |
| 20260505023023 | 24 | 161 | 6.4 | 27.4 | 0.00 | 0.00 | 0.00 | 71 | 1003.9 |
| 20260505021526 | 24 | 180 | 8.0 | 22.5 | 0.00 | 0.00 | 0.00 | 71 | 1003.8 |
| 20260505020021 | 24 | 128 | 4.8 | 24.1 | 0.00 | 0.00 | 0.00 | 70 | 1003.6 |
| 20260505014520 | 24 | 161 | 11.3 | 20.9 | 0.00 | 0.00 | 0.00 | 70 | 1003.8 |
| 20260505013020 | 24 | 170 | 9.7 | 20.9 | 0.00 | 0.00 | 0.00 | 69 | 1003.8 |